Showing default

COSMOS 2528, 43657

Orbit data source: Space-Track

COSMOS 2528, 43657 is a payload satellite owned by VVKO VKS (CIS) in LEO that was launched on Thu, 25 Oct 2018 UTC via a SOYUZ-2-1B launch vehicle from the Plesetsk Missile And Space Complex (PKMTR). Payload-class satellites include a variety of spacecraft equipped with specific instruments for various scientific and technological missions. These include communications satellites like Starlink; space stations such as the ISS; scientific satellites like the Hubble; Earth observation satellites from companies like Planet Labs, Umbra, and HawkEye 360; GPS; miniature CubeSats for education and research; and military/defense satellites.

Loading next visibility...
Identifier
43657, 2018-082A
Orbit
LEO
Country
Flag of CISCIS
Related business
Manufacturer
TSSKBP/ARSLO
Mission
Operational Defense Sigint
Bus & Motor
YANTAR'-LOTOS, 11D428
Mass
6,575 kg wet, ~6,500 kg dry
Launch date (UTC)
2018-10-25 (8 years ago)
Launch vehicle
SOYUZ-2-1B
Launch site
Plesetsk Missile And Space Complex (PKMTR)
Object type
Payload
Rocket body
Debris
Shape & HBR
Cyl + 2 Pan, 3.1 m
Radar Cross Section
16.222 m², Large (>1 m²)

Expand to show TLE details & history
Last TLE update: 2 days ago

TLE from 2 days ago
0 COSMOS 2528
1 43657U 18082A   26171.44682140 -.00000037  00000-0  27325-4 0  9994
2 43657  67.1494  69.8354 0008006 276.9395  83.0778 13.96709631390402
Epoch: 2026-06-20T10:43Z
TLE epoch observation values (Epoch: 2026-06-20T10:43:25.368Z)
Latitude
-0.00012°
Longitude
0.31833°
Altitude
906.622 km
Speed
7.399 km/s
True Right ascension
04h 39m 20s
True Declination
0° 00' 00"
Sunlit
Object was in daylight at epoch
Visualization orbit readout
Latitude
Unknown
Longitude
Unknown
Altitude
Unknown
Speed
Unknown
Apparent Right ascension
Unknown
Apparent Declination
Unknown
Sunlit
N/A
Visualization observer readout
Local Sidereal Time
21:30:20
Azimuth
Unknown
Elevation
Unknown
Doppler factor
Unknown
Orbital elements
Apogee altitude
909.39 km
Perigee altitude
897.731 km
Semi-major axis
7,281.698 km
Eccentricity
0.0008
Inclination
67.1494°
RAAN
69.8354°
Arg. of periapsis
276.9395°
True anomaly
83.16888°
Mean anomaly
83.0778°
Eccentric anomaly
83.12334°
Mean motion
3.49296 °/min
Orbital period
103.06 mins
BSTAR
0.000027325
Loading maneuver chart data...
Computing Atmospheric mass density...
Loading historical data...
Loading historical data...
Loading historical data...
Loading historical data...
Loading historical data...
Loading historical data...
Loading historical data...
Other satellites on launch #82 in the year 2018 (2018-10-25 UTC)

Documentation

Showing up to 5 results
|